Time,TemperatureF,DewpointF,PressureIn,WindDirection,WindDirectionDegrees,WindSpeedMPH,WindSpeedGustMPH,Humidity,HourlyPrecipIn,Conditions,Clouds,dailyrainin,SoftwareType,DateUTC
2013-01-09 00:00:00,34.9,33.0,30.34,WSW,247,1.2,3.0,96,0.00,,,0.00,Rainwise IP-100,2013-01-09 05:00:00,
2013-01-09 00:01:00,34.8,33.0,30.34,WSW,247,1.4,3.0,96,0.00,,,0.00,Rainwise IP-100,2013-01-09 05:01:00,
2013-01-09 00:06:00,34.6,33.0,30.34,WSW,247,1.9,2.1,96,0.00,,,0.00,Rainwise IP-100,2013-01-09 05:06:00,
2013-01-09 00:11:00,34.7,33.0,30.34,WSW,247,0.0,2.1,96,0.00,,,0.00,Rainwise IP-100,2013-01-09 05:11:00,
2013-01-09 00:16:00,34.8,33.0,30.34,WSW,247,1.6,2.3,97,0.00,,,0.00,Rainwise IP-100,2013-01-09 05:16:00,
2013-01-09 00:21:00,34.8,33.0,30.34,WSW,247,0.0,2.1,97,0.00,,,0.00,Rainwise IP-100,2013-01-09 05:21:00,
2013-01-09 00:26:00,34.8,33.0,30.35,WSW,247,1.4,3.0,97,0.00,,,0.00,Rainwise IP-100,2013-01-09 05:26:00,
2013-01-09 00:31:00,34.9,33.0,30.35,WSW,247,1.2,4.0,97,0.00,,,0.00,Rainwise IP-100,2013-01-09 05:31:00,
2013-01-09 00:36:00,35.1,33.0,30.34,WSW,247,0.0,3.3,97,0.00,,,0.00,Rainwise IP-100,2013-01-09 05:36:00,
2013-01-09 00:41:00,35.2,33.0,30.35,WSW,247,0.0,2.1,97,0.00,,,0.00,Rainwise IP-100,2013-01-09 05:41:00,
2013-01-09 00:46:00,35.0,33.0,30.35,SW,225,1.9,3.3,97,0.00,,,0.00,Rainwise IP-100,2013-01-09 05:46:00,
2013-01-09 00:51:00,34.8,33.0,30.35,WSW,247,1.2,3.3,97,0.00,,,0.00,Rainwise IP-100,2013-01-09 05:51:00,
2013-01-09 00:56:00,34.9,33.0,30.35,WSW,247,0.0,2.8,97,0.00,,,0.00,Rainwise IP-100,2013-01-09 05:56:00,
2013-01-09 01:01:00,34.9,33.0,30.34,WSW,247,0.0,2.3,97,0.00,,,0.00,Rainwise IP-100,2013-01-09 06:01:00,
2013-01-09 01:06:00,34.8,33.0,30.34,WSW,247,0.0,2.1,97,0.00,,,0.00,Rainwise IP-100,2013-01-09 06:06:00,
2013-01-09 01:11:00,34.7,33.0,30.35,WSW,247,2.3,3.0,97,0.00,,,0.00,Rainwise IP-100,2013-01-09 06:11:00,
2013-01-09 01:16:00,34.8,33.0,30.35,WSW,247,1.2,3.3,97,0.00,,,0.00,Rainwise IP-100,2013-01-09 06:16:00,
2013-01-09 01:21:00,34.9,35.0,30.35,WSW,247,0.0,2.8,98,0.00,,,0.00,Rainwise IP-100,2013-01-09 06:21:00,
2013-01-09 01:26:00,34.8,35.0,30.35,WSW,247,0.0,2.8,98,0.00,,,0.00,Rainwise IP-100,2013-01-09 06:26:00,
2013-01-09 01:31:00,34.8,35.0,30.36,WSW,247,2.1,3.0,98,0.00,,,0.00,Rainwise IP-100,2013-01-09 06:31:00,
2013-01-09 01:36:00,34.8,35.0,30.36,WSW,247,2.3,2.6,98,0.00,,,0.00,Rainwise IP-100,2013-01-09 06:36:00,
2013-01-09 01:41:00,34.8,35.0,30.36,WSW,247,2.3,3.5,98,0.00,,,0.00,Rainwise IP-100,2013-01-09 06:41:00,
2013-01-09 01:46:00,34.8,35.0,30.36,WSW,247,1.6,2.3,98,0.00,,,0.00,Rainwise IP-100,2013-01-09 06:46:00,
2013-01-09 01:51:00,34.8,35.0,30.36,WSW,247,1.6,2.3,98,0.00,,,0.00,Rainwise IP-100,2013-01-09 06:51:00,
2013-01-09 01:56:00,34.8,35.0,30.35,WSW,247,0.0,1.9,98,0.00,,,0.00,Rainwise IP-100,2013-01-09 06:56:00,
2013-01-09 02:01:00,34.7,35.0,30.35,WSW,247,0.0,2.1,98,0.00,,,0.00,Rainwise IP-100,2013-01-09 07:01:00,
2013-01-09 02:06:00,34.6,35.0,30.35,WSW,247,0.0,1.9,98,0.00,,,0.00,Rainwise IP-100,2013-01-09 07:06:00,
2013-01-09 02:11:00,34.7,35.0,30.35,WSW,247,0.0,1.2,98,0.00,,,0.00,Rainwise IP-100,2013-01-09 07:11:00,
2013-01-09 02:16:00,34.6,35.0,30.34,WSW,247,0.0,0.0,98,0.00,,,0.00,Rainwise IP-100,2013-01-09 07:16:00,
2013-01-09 02:21:00,34.3,35.0,30.35,WSW,247,0.0,0.0,98,0.00,,,0.00,Rainwise IP-100,2013-01-09 07:21:00,
2013-01-09 02:26:00,33.8,35.0,30.34,WSW,247,0.0,0.0,98,0.00,,,0.00,Rainwise IP-100,2013-01-09 07:26:00,
2013-01-09 02:31:00,33.3,33.0,30.35,WSW,247,1.4,1.4,98,0.00,,,0.00,Rainwise IP-100,2013-01-09 07:31:00,
2013-01-09 02:36:00,33.3,33.0,30.35,WSW,247,2.6,2.8,98,0.00,,,0.00,Rainwise IP-100,2013-01-09 07:36:00,
2013-01-09 02:41:00,33.2,33.0,30.35,WSW,247,1.6,2.8,98,0.00,,,0.00,Rainwise IP-100,2013-01-09 07:41:00,
2013-01-09 02:46:00,33.1,33.0,30.35,WSW,247,1.6,2.1,98,0.00,,,0.00,Rainwise IP-100,2013-01-09 07:46:00,
2013-01-09 02:51:00,33.3,33.0,30.35,WSW,247,1.6,2.3,99,0.00,,,0.00,Rainwise IP-100,2013-01-09 07:51:00,
2013-01-09 02:56:00,33.1,33.0,30.35,WSW,247,2.1,2.3,98,0.00,,,0.00,Rainwise IP-100,2013-01-09 07:56:00,
2013-01-09 03:01:00,33.0,33.0,30.36,WSW,247,0.0,2.3,98,0.00,,,0.00,Rainwise IP-100,2013-01-09 08:01:00,
2013-01-09 03:06:00,33.2,33.0,30.35,WSW,247,1.4,1.6,99,0.00,,,0.00,Rainwise IP-100,2013-01-09 08:06:00,
2013-01-09 03:11:00,33.1,33.0,30.36,WSW,247,0.0,1.6,99,0.00,,,0.00,Rainwise IP-100,2013-01-09 08:11:00,
2013-01-09 03:16:00,32.9,33.0,30.36,WSW,247,1.4,2.3,99,0.00,,,0.00,Rainwise IP-100,2013-01-09 08:16:00,
2013-01-09 03:21:00,32.5,33.0,30.36,WSW,247,0.0,2.1,99,0.00,,,0.00,Rainwise IP-100,2013-01-09 08:21:00,
2013-01-09 03:26:00,32.2,32.0,30.36,WSW,247,0.0,0.0,99,0.00,,,0.00,Rainwise IP-100,2013-01-09 08:26:00,
2013-01-09 03:31:00,32.2,32.0,30.36,WSW,247,0.0,0.0,99,0.00,,,0.00,Rainwise IP-100,2013-01-09 08:31:00,
2013-01-09 03:36:00,32.1,32.0,30.36,WSW,247,1.2,1.6,99,0.00,,,0.00,Rainwise IP-100,2013-01-09 08:36:00,
2013-01-09 03:41:00,32.0,32.0,30.36,WSW,247,1.4,1.6,99,0.00,,,0.00,Rainwise IP-100,2013-01-09 08:41:00,
2013-01-09 03:46:00,32.2,32.0,30.36,WSW,247,0.0,1.4,99,0.00,,,0.00,Rainwise IP-100,2013-01-09 08:46:00,
2013-01-09 03:51:00,32.6,33.0,30.36,WSW,247,1.2,1.9,99,0.00,,,0.00,Rainwise IP-100,2013-01-09 08:51:00,
2013-01-09 03:54:00,32.6,33.0,30.36,WSW,247,0.0,1.9,99,0.00,,,0.00,Rainwise IP-100,2013-01-09 08:54:00,
2013-01-09 03:59:00,32.7,33.0,30.36,WSW,247,0.0,1.2,99,0.00,,,0.00,Rainwise IP-100,2013-01-09 08:59:00,
2013-01-09 04:04:00,32.8,33.0,30.36,WSW,247,0.0,1.6,99,0.00,,,0.00,Rainwise IP-100,2013-01-09 09:04:00,
2013-01-09 04:10:00,33.1,33.0,30.35,WSW,247,1.2,1.6,99,0.00,,,0.00,Rainwise IP-100,2013-01-09 09:10:00,
2013-01-09 04:15:00,33.2,33.0,30.35,WSW,247,0.0,1.9,99,0.00,,,0.00,Rainwise IP-100,2013-01-09 09:15:00,
2013-01-09 04:20:00,32.8,33.0,30.34,WSW,247,0.0,1.6,99,0.00,,,0.00,Rainwise IP-100,2013-01-09 09:20:00,
2013-01-09 04:25:00,32.4,32.0,30.34,WSW,247,1.2,1.4,99,0.00,,,0.00,Rainwise IP-100,2013-01-09 09:25:00,
2013-01-09 04:30:00,32.6,33.0,30.34,WSW,247,0.0,1.6,99,0.00,,,0.00,Rainwise IP-100,2013-01-09 09:30:00,
2013-01-09 04:35:00,32.8,33.0,30.34,WSW,247,0.0,1.2,99,0.00,,,0.00,Rainwise IP-100,2013-01-09 09:35:00,
2013-01-09 04:40:00,32.8,33.0,30.35,WSW,247,0.0,0.0,99,0.00,,,0.00,Rainwise IP-100,2013-01-09 09:40:00,
2013-01-09 04:45:00,32.9,33.0,30.34,WSW,247,0.0,0.0,99,0.00,,,0.00,Rainwise IP-100,2013-01-09 09:45:00,
2013-01-09 04:50:00,33.1,33.0,30.34,WSW,247,0.0,0.0,99,0.00,,,0.00,Rainwise IP-100,2013-01-09 09:50:00,
2013-01-09 04:55:00,33.2,33.0,30.34,WSW,247,0.0,1.4,100,0.00,,,0.00,Rainwise IP-100,2013-01-09 09:55:00,
2013-01-09 05:00:00,33.2,33.0,30.34,WSW,247,0.0,0.0,100,0.00,,,0.00,Rainwise IP-100,2013-01-09 10:00:00,
2013-01-09 05:05:00,33.2,33.0,30.34,WSW,247,0.0,1.6,100,0.00,,,0.00,Rainwise IP-100,2013-01-09 10:05:00,
2013-01-09 05:10:00,33.5,35.0,30.34,WSW,247,0.0,1.9,100,0.00,,,0.00,Rainwise IP-100,2013-01-09 10:10:00,
2013-01-09 05:15:00,33.8,35.0,30.34,WSW,247,1.6,2.1,100,0.00,,,0.00,Rainwise IP-100,2013-01-09 10:15:00,
2013-01-09 05:20:00,34.1,35.0,30.34,North,360,0.0,2.1,100,0.00,,,0.00,Rainwise IP-100,2013-01-09 10:20:00,
2013-01-09 05:25:00,34.2,35.0,30.34,North,360,0.0,1.9,100,0.00,,,0.00,Rainwise IP-100,2013-01-09 10:25:00,
2013-01-09 05:30:00,34.2,35.0,30.33,North,360,0.0,1.9,100,0.00,,,0.00,Rainwise IP-100,2013-01-09 10:30:00,
2013-01-09 05:35:00,34.0,35.0,30.33,North,360,0.0,1.9,100,0.00,,,0.00,Rainwise IP-100,2013-01-09 10:35:00,
2013-01-09 05:40:00,33.9,35.0,30.34,North,360,0.0,2.6,99,0.00,,,0.00,Rainwise IP-100,2013-01-09 10:40:00,
2013-01-09 05:45:00,33.8,35.0,30.34,North,360,0.0,1.4,99,0.00,,,0.00,Rainwise IP-100,2013-01-09 10:45:00,
2013-01-09 05:50:00,33.4,33.0,30.34,North,360,0.0,0.0,99,0.00,,,0.00,Rainwise IP-100,2013-01-09 10:50:00,
2013-01-09 05:55:00,32.7,33.0,30.34,North,360,0.0,1.4,99,0.00,,,0.00,Rainwise IP-100,2013-01-09 10:55:00,
2013-01-09 06:00:00,32.4,32.0,30.34,North,360,0.0,1.4,99,0.00,,,0.00,Rainwise IP-100,2013-01-09 11:00:00,
2013-01-09 06:05:00,32.8,33.0,30.34,North,360,0.0,1.6,99,0.00,,,0.00,Rainwise IP-100,2013-01-09 11:05:00,
2013-01-09 06:10:00,33.2,33.0,30.35,North,360,1.9,2.1,99,0.00,,,0.00,Rainwise IP-100,2013-01-09 11:10:00,
2013-01-09 06:15:00,33.1,33.0,30.35,North,360,2.6,2.6,99,0.00,,,0.00,Rainwise IP-100,2013-01-09 11:15:00,
2013-01-09 06:20:00,33.1,33.0,30.35,North,360,0.0,2.6,99,0.00,,,0.00,Rainwise IP-100,2013-01-09 11:20:00,
2013-01-09 06:25:00,33.4,33.0,30.35,North,360,1.2,1.4,99,0.00,,,0.00,Rainwise IP-100,2013-01-09 11:25:00,
2013-01-09 06:30:00,33.5,35.0,30.35,North,360,1.4,1.4,99,0.00,,,0.00,Rainwise IP-100,2013-01-09 11:30:00,
2013-01-09 06:35:00,33.4,33.0,30.36,North,360,1.2,1.4,99,0.00,,,0.00,Rainwise IP-100,2013-01-09 11:35:00,
2013-01-09 06:40:00,33.0,33.0,30.36,North,360,0.0,1.9,99,0.00,,,0.00,Rainwise IP-100,2013-01-09 11:40:00,
2013-01-09 06:45:00,32.5,33.0,30.36,North,360,0.0,1.9,99,0.00,,,0.00,Rainwise IP-100,2013-01-09 11:45:00,
2013-01-09 06:50:00,32.2,32.0,30.36,North,360,1.2,2.6,99,0.00,,,0.00,Rainwise IP-100,2013-01-09 11:50:00,
2013-01-09 06:55:00,31.8,32.0,30.36,North,360,0.0,3.3,98,0.00,,,0.00,Rainwise IP-100,2013-01-09 11:55:00,
2013-01-09 07:00:00,31.4,31.0,30.37,North,360,1.6,2.6,98,0.00,,,0.00,Rainwise IP-100,2013-01-09 12:00:00,
2013-01-09 07:05:00,31.2,31.0,30.36,North,360,0.0,2.8,98,0.00,,,0.00,Rainwise IP-100,2013-01-09 12:05:00,
2013-01-09 07:10:00,31.0,31.0,30.36,North,360,0.0,0.0,99,0.00,,,0.00,Rainwise IP-100,2013-01-09 12:10:00,
2013-01-09 07:15:00,30.9,31.0,30.36,North,360,0.0,0.0,99,0.00,,,0.00,Rainwise IP-100,2013-01-09 12:15:00,
2013-01-09 07:20:00,30.9,31.0,30.37,North,360,0.0,0.0,99,0.00,,,0.00,Rainwise IP-100,2013-01-09 12:20:00,
2013-01-09 07:25:00,30.7,31.0,30.37,North,360,0.0,0.0,99,0.00,,,0.00,Rainwise IP-100,2013-01-09 12:25:00,
2013-01-09 07:30:00,30.3,31.0,30.37,North,360,0.0,0.0,99,0.00,,,0.00,Rainwise IP-100,2013-01-09 12:30:00,
2013-01-09 07:35:00,29.8,31.0,30.36,North,360,0.0,0.0,99,0.00,,,0.00,Rainwise IP-100,2013-01-09 12:35:00,
2013-01-09 07:40:00,29.5,31.0,30.36,North,360,0.0,0.0,99,0.00,,,0.00,Rainwise IP-100,2013-01-09 12:40:00,
2013-01-09 07:45:00,29.3,29.0,30.36,North,360,0.0,0.0,99,0.00,,,0.00,Rainwise IP-100,2013-01-09 12:45:00,
2013-01-09 07:50:00,29.2,29.0,30.36,North,360,0.0,0.0,99,0.00,,,0.00,Rainwise IP-100,2013-01-09 12:50:00,
2013-01-09 07:55:00,29.2,29.0,30.37,North,360,0.0,0.0,99,0.00,,,0.00,Rainwise IP-100,2013-01-09 12:55:00,
2013-01-09 08:00:00,29.2,29.0,30.37,North,360,0.0,0.0,99,0.00,,,0.00,Rainwise IP-100,2013-01-09 13:00:00,
2013-01-09 08:05:00,29.4,29.0,30.37,SW,225,1.2,2.6,99,0.00,,,0.00,Rainwise IP-100,2013-01-09 13:05:00,
2013-01-09 08:10:00,29.8,31.0,30.37,SW,225,0.0,1.4,99,0.00,,,0.00,Rainwise IP-100,2013-01-09 13:10:00,
2013-01-09 08:15:00,30.3,31.0,30.37,SW,225,0.0,0.0,100,0.00,,,0.00,Rainwise IP-100,2013-01-09 13:15:00,
2013-01-09 08:20:00,30.8,31.0,30.36,SW,225,0.0,0.0,100,0.00,,,0.00,Rainwise IP-100,2013-01-09 13:20:00,
2013-01-09 08:25:00,31.1,31.0,30.36,SW,225,0.0,0.0,100,0.00,,,0.00,Rainwise IP-100,2013-01-09 13:25:00,
2013-01-09 08:30:00,31.3,31.0,30.36,SW,225,0.0,0.0,100,0.00,,,0.00,Rainwise IP-100,2013-01-09 13:30:00,
2013-01-09 08:35:00,31.5,32.0,30.37,SW,225,1.2,1.4,100,0.00,,,0.00,Rainwise IP-100,2013-01-09 13:35:00,
2013-01-09 08:40:00,31.8,32.0,30.37,SW,225,1.6,2.3,100,0.00,,,0.00,Rainwise IP-100,2013-01-09 13:40:00,
2013-01-09 08:45:00,32.2,32.0,30.37,SW,225,0.0,1.6,100,0.00,,,0.00,Rainwise IP-100,2013-01-09 13:45:00,
2013-01-09 08:50:00,32.6,33.0,30.36,SW,225,0.0,0.0,100,0.00,,,0.00,Rainwise IP-100,2013-01-09 13:50:00,
2013-01-09 08:55:00,33.4,33.0,30.36,SW,225,0.0,0.0,100,0.00,,,0.00,Rainwise IP-100,2013-01-09 13:55:00,
2013-01-09 09:00:00,34.2,35.0,30.36,SW,225,0.0,0.0,100,0.00,,,0.00,Rainwise IP-100,2013-01-09 14:00:00,
2013-01-09 09:05:00,34.6,35.0,30.36,SW,225,0.0,0.0,100,0.00,,,0.00,Rainwise IP-100,2013-01-09 14:05:00,
2013-01-09 09:10:00,34.8,35.0,30.36,SW,225,0.0,0.0,100,0.00,,,0.00,Rainwise IP-100,2013-01-09 14:10:00,
2013-01-09 09:15:00,35.5,36.0,30.36,SW,225,0.0,0.0,100,0.00,,,0.00,Rainwise IP-100,2013-01-09 14:15:00,
2013-01-09 09:20:00,36.9,37.0,30.37,SW,225,0.0,1.4,100,0.00,,,0.00,Rainwise IP-100,2013-01-09 14:20:00,
2013-01-09 09:25:00,37.7,38.0,30.36,SW,225,0.0,0.0,98,0.00,,,0.00,Rainwise IP-100,2013-01-09 14:25:00,
2013-01-09 09:30:00,38.1,37.0,30.36,SW,225,0.0,1.6,96,0.00,,,0.00,Rainwise IP-100,2013-01-09 14:30:00,
2013-01-09 09:35:00,38.7,38.0,30.36,SE,135,2.1,2.8,96,0.00,,,0.00,Rainwise IP-100,2013-01-09 14:35:00,
2013-01-09 09:40:00,38.9,38.0,30.36,SSE,157,1.9,3.3,94,0.00,,,0.00,Rainwise IP-100,2013-01-09 14:40:00,
2013-01-09 09:45:00,38.9,37.0,30.36,South,180,0.0,2.6,93,0.00,,,0.00,Rainwise IP-100,2013-01-09 14:45:00,
2013-01-09 09:50:00,38.7,38.0,30.36,South,180,1.4,1.6,94,0.00,,,0.00,Rainwise IP-100,2013-01-09 14:50:00,
2013-01-09 09:55:00,38.7,38.0,30.36,South,180,1.2,2.3,94,0.00,,,0.00,Rainwise IP-100,2013-01-09 14:55:00,
2013-01-09 10:00:00,38.7,38.0,30.36,South,180,2.1,3.7,94,0.00,,,0.00,Rainwise IP-100,2013-01-09 15:00:00,
2013-01-09 10:05:00,38.5,38.0,30.36,South,180,1.6,3.3,95,0.00,,,0.00,Rainwise IP-100,2013-01-09 15:05:00,
2013-01-09 10:10:00,38.5,38.0,30.35,South,180,2.3,3.3,94,0.00,,,0.00,Rainwise IP-100,2013-01-09 15:10:00,
2013-01-09 10:15:00,38.7,37.0,30.35,South,180,2.3,4.2,93,0.00,,,0.00,Rainwise IP-100,2013-01-09 15:15:00,
2013-01-09 10:20:00,39.0,37.0,30.35,South,180,1.9,4.4,93,0.00,,,0.00,Rainwise IP-100,2013-01-09 15:20:00,
2013-01-09 10:25:00,39.4,37.0,30.35,South,180,2.3,3.5,92,0.00,,,0.00,Rainwise IP-100,2013-01-09 15:25:00,
2013-01-09 10:30:00,39.9,38.0,30.35,SW,225,2.6,4.2,91,0.00,,,0.00,Rainwise IP-100,2013-01-09 15:30:00,
2013-01-09 10:35:00,40.2,38.0,30.35,SSW,202,0.0,4.7,90,0.00,,,0.00,Rainwise IP-100,2013-01-09 15:35:00,
2013-01-09 10:40:00,40.6,38.0,30.34,SSW,202,2.3,4.7,90,0.00,,,0.00,Rainwise IP-100,2013-01-09 15:40:00,
2013-01-09 10:45:00,40.9,38.0,30.34,WSW,247,2.3,4.0,90,0.00,,,0.00,Rainwise IP-100,2013-01-09 15:45:00,
2013-01-09 10:50:00,41.2,38.0,30.33,SW,225,5.1,5.1,89,0.00,,,0.00,Rainwise IP-100,2013-01-09 15:50:00,
2013-01-09 10:55:00,41.5,39.0,30.33,SW,225,1.2,5.4,89,0.00,,,0.00,Rainwise IP-100,2013-01-09 15:55:00,
2013-01-09 11:00:00,41.7,39.0,30.33,SW,225,2.8,5.6,89,0.00,,,0.00,Rainwise IP-100,2013-01-09 16:00:00,
2013-01-09 11:05:00,41.9,39.0,30.32,SSW,202,6.1,7.7,88,0.00,,,0.00,Rainwise IP-100,2013-01-09 16:05:00,
2013-01-09 11:10:00,42.1,39.0,30.32,SW,225,4.9,6.5,88,0.00,,,0.00,Rainwise IP-100,2013-01-09 16:10:00,
2013-01-09 11:15:00,42.2,39.0,30.32,SW,225,3.3,6.3,88,0.00,,,0.00,Rainwise IP-100,2013-01-09 16:15:00,
2013-01-09 11:20:00,42.3,38.0,30.31,WSW,247,3.7,6.8,87,0.00,,,0.00,Rainwise IP-100,2013-01-09 16:20:00,
2013-01-09 11:25:00,42.3,38.0,30.30,SW,225,2.8,5.4,87,0.00,,,0.00,Rainwise IP-100,2013-01-09 16:25:00,
2013-01-09 11:30:00,42.4,38.0,30.30,SSW,202,3.5,5.1,87,0.00,,,0.00,Rainwise IP-100,2013-01-09 16:30:00,
2013-01-09 11:35:00,42.6,39.0,30.30,SW,225,3.3,5.6,87,0.00,,,0.00,Rainwise IP-100,2013-01-09 16:35:00,
2013-01-09 11:40:00,42.7,39.0,30.30,SW,225,5.1,6.1,87,0.00,,,0.00,Rainwise IP-100,2013-01-09 16:40:00,
2013-01-09 11:45:00,42.7,39.0,30.29,SW,225,4.0,8.4,87,0.00,,,0.00,Rainwise IP-100,2013-01-09 16:45:00,
2013-01-09 11:50:00,42.6,39.0,30.29,SSW,202,3.3,6.5,87,0.00,,,0.00,Rainwise IP-100,2013-01-09 16:50:00,
2013-01-09 11:55:00,42.6,39.0,30.28,SW,225,4.0,6.8,87,0.00,,,0.00,Rainwise IP-100,2013-01-09 16:55:00,
2013-01-09 12:00:00,42.7,39.0,30.28,SW,225,5.6,6.3,86,0.00,,,0.00,Rainwise IP-100,2013-01-09 17:00:00,
2013-01-09 12:05:00,42.7,39.0,30.26,SSW,202,3.3,5.8,86,0.00,,,0.00,Rainwise IP-100,2013-01-09 17:05:00,
2013-01-09 12:10:00,42.7,39.0,30.26,WSW,247,4.0,5.8,87,0.00,,,0.00,Rainwise IP-100,2013-01-09 17:10:00,
2013-01-09 12:15:00,42.7,39.0,30.26,SW,225,3.7,6.5,87,0.00,,,0.00,Rainwise IP-100,2013-01-09 17:15:00,
2013-01-09 12:20:00,42.7,39.0,30.25,SW,225,3.5,5.1,87,0.00,,,0.00,Rainwise IP-100,2013-01-09 17:20:00,
2013-01-09 12:25:00,42.8,39.0,30.24,SSW,202,3.5,6.1,87,0.00,,,0.00,Rainwise IP-100,2013-01-09 17:25:00,
2013-01-09 12:30:00,42.8,39.0,30.24,SSW,202,5.1,6.5,87,0.00,,,0.00,Rainwise IP-100,2013-01-09 17:30:00,
2013-01-09 12:35:00,42.8,39.0,30.23,SSE,157,6.1,8.6,87,0.00,,,0.00,Rainwise IP-100,2013-01-09 17:35:00,
2013-01-09 12:40:00,42.9,39.0,30.22,SSW,202,5.4,7.2,87,0.00,,,0.00,Rainwise IP-100,2013-01-09 17:40:00,
2013-01-09 12:45:00,42.9,39.0,30.21,South,180,4.0,10.5,86,0.00,,,0.00,Rainwise IP-100,2013-01-09 17:45:00,
2013-01-09 12:50:00,42.8,39.0,30.21,South,180,4.2,6.8,86,0.00,,,0.00,Rainwise IP-100,2013-01-09 17:50:00,
2013-01-09 12:55:00,42.8,39.0,30.21,SW,225,5.8,8.4,86,0.00,,,0.00,Rainwise IP-100,2013-01-09 17:55:00,
2013-01-09 13:00:00,42.8,39.0,30.21,SSW,202,3.7,7.9,86,0.00,,,0.00,Rainwise IP-100,2013-01-09 18:00:00,
2013-01-09 13:05:00,42.8,39.0,30.21,SW,225,4.0,7.2,86,0.00,,,0.00,Rainwise IP-100,2013-01-09 18:05:00,
2013-01-09 13:10:00,42.9,39.0,30.20,SW,225,4.0,8.2,85,0.00,,,0.00,Rainwise IP-100,2013-01-09 18:10:00,
2013-01-09 13:15:00,43.0,39.0,30.20,South,180,4.4,7.9,84,0.00,,,0.00,Rainwise IP-100,2013-01-09 18:15:00,
2013-01-09 13:20:00,43.2,38.0,30.19,South,180,5.1,7.2,83,0.00,,,0.00,Rainwise IP-100,2013-01-09 18:20:00,
2013-01-09 13:25:00,43.4,38.0,30.19,SSW,202,5.8,8.6,83,0.00,,,0.00,Rainwise IP-100,2013-01-09 18:25:00,
2013-01-09 13:30:00,43.5,39.0,30.19,SSW,202,4.9,7.9,82,0.00,,,0.00,Rainwise IP-100,2013-01-09 18:30:00,
2013-01-09 13:35:00,43.7,39.0,30.19,SW,225,3.0,9.3,83,0.00,,,0.00,Rainwise IP-100,2013-01-09 18:35:00,
2013-01-09 13:40:00,43.8,39.0,30.19,South,180,4.7,8.4,83,0.00,,,0.00,Rainwise IP-100,2013-01-09 18:40:00,
2013-01-09 13:41:00,43.8,39.0,30.19,SSW,202,3.5,8.4,84,0.00,,,0.00,Rainwise IP-100,2013-01-09 18:41:00,
2013-01-09 13:44:00,43.9,39.0,30.18,SSW,202,5.1,7.5,84,0.00,,,0.00,Rainwise IP-100,2013-01-09 18:44:00,
2013-01-09 13:48:00,44.0,40.0,30.19,South,180,5.4,10.0,85,0.00,,,0.00,Rainwise IP-100,2013-01-09 18:48:00,
2013-01-09 13:53:00,44.1,40.0,30.20,SSW,202,4.0,9.3,86,0.00,,,0.00,Rainwise IP-100,2013-01-09 18:53:00,
2013-01-09 13:58:00,44.3,40.0,30.20,SSW,202,6.3,8.4,86,0.00,,,0.00,Rainwise IP-100,2013-01-09 18:58:00,
2013-01-09 14:03:00,44.4,40.0,30.21,SSW,202,4.7,8.9,87,0.00,,,0.00,Rainwise IP-100,2013-01-09 19:03:00,
2013-01-09 14:08:00,44.5,41.0,30.21,WSW,247,5.4,6.3,87,0.00,,,0.00,Rainwise IP-100,2013-01-09 19:08:00,
2013-01-09 14:13:00,44.6,41.0,30.22,SW,225,3.5,6.5,88,0.00,,,0.00,Rainwise IP-100,2013-01-09 19:13:00,
2013-01-09 14:18:00,44.7,41.0,30.21,WSW,247,3.0,5.6,88,0.00,,,0.00,Rainwise IP-100,2013-01-09 19:18:00,
2013-01-09 14:23:00,44.7,41.0,30.22,WSW,247,3.0,6.8,88,0.00,,,0.00,Rainwise IP-100,2013-01-09 19:23:00,
2013-01-09 14:28:00,44.7,41.0,30.23,SW,225,2.1,7.0,88,0.00,,,0.00,Rainwise IP-100,2013-01-09 19:28:00,
2013-01-09 14:33:00,44.7,41.0,30.22,WSW,247,2.1,5.4,88,0.00,,,0.00,Rainwise IP-100,2013-01-09 19:33:00,
2013-01-09 14:38:00,44.6,41.0,30.21,SSW,202,3.5,5.8,88,0.00,,,0.00,Rainwise IP-100,2013-01-09 19:38:00,
2013-01-09 14:40:00,44.6,41.0,30.20,SW,225,4.0,7.0,88,0.00,,,0.00,Rainwise IP-100,2013-01-09 19:40:00,
2013-01-09 14:45:00,44.7,41.0,30.20,WSW,247,5.4,6.1,88,0.00,,,0.00,Rainwise IP-100,2013-01-09 19:45:00,
2013-01-09 14:50:00,45.0,41.0,30.19,SSW,202,4.4,8.2,87,0.00,,,0.00,Rainwise IP-100,2013-01-09 19:50:00,
2013-01-09 14:55:00,45.1,41.0,30.18,SSW,202,2.6,6.5,87,0.00,,,0.00,Rainwise IP-100,2013-01-09 19:55:00,
2013-01-09 15:00:00,45.0,41.0,30.18,SSW,202,2.6,7.7,87,0.00,,,0.00,Rainwise IP-100,2013-01-09 20:00:00,
2013-01-09 15:05:00,44.9,41.0,30.17,SSW,202,5.8,8.2,87,0.00,,,0.00,Rainwise IP-100,2013-01-09 20:05:00,
2013-01-09 15:10:00,44.7,41.0,30.17,SSW,202,3.3,8.2,87,0.00,,,0.00,Rainwise IP-100,2013-01-09 20:10:00,
2013-01-09 15:15:00,44.5,41.0,30.17,SSW,202,4.4,9.1,87,0.00,,,0.00,Rainwise IP-100,2013-01-09 20:15:00,
2013-01-09 15:20:00,44.3,40.0,30.17,SSW,202,4.0,7.5,87,0.00,,,0.00,Rainwise IP-100,2013-01-09 20:20:00,
2013-01-09 15:25:00,44.1,41.0,30.17,SSW,202,5.8,6.5,88,0.00,,,0.00,Rainwise IP-100,2013-01-09 20:25:00,
2013-01-09 15:30:00,43.8,41.0,30.16,SSW,202,3.0,7.2,88,0.00,,,0.00,Rainwise IP-100,2013-01-09 20:30:00,
2013-01-09 15:35:00,43.6,41.0,30.16,WSW,247,3.3,6.3,89,0.00,,,0.00,Rainwise IP-100,2013-01-09 20:35:00,
2013-01-09 15:40:00,43.4,40.0,30.17,SW,225,5.1,5.8,89,0.00,,,0.00,Rainwise IP-100,2013-01-09 20:40:00,
2013-01-09 15:45:00,43.2,40.0,30.16,WSW,247,4.2,6.5,90,0.00,,,0.00,Rainwise IP-100,2013-01-09 20:45:00,
2013-01-09 15:50:00,43.0,40.0,30.16,SW,225,4.2,7.7,91,0.00,,,0.00,Rainwise IP-100,2013-01-09 20:50:00,
2013-01-09 15:55:00,42.8,40.0,30.16,SSW,202,4.0,7.0,91,0.00,,,0.00,Rainwise IP-100,2013-01-09 20:55:00,
2013-01-09 16:00:00,42.8,41.0,30.15,SW,225,3.7,6.5,92,0.00,,,0.00,Rainwise IP-100,2013-01-09 21:00:00,
2013-01-09 16:05:00,42.8,41.0,30.15,SSW,202,4.2,7.7,92,0.00,,,0.00,Rainwise IP-100,2013-01-09 21:05:00,
2013-01-09 16:10:00,42.9,41.0,30.14,SSW,202,3.3,8.9,92,0.00,,,0.00,Rainwise IP-100,2013-01-09 21:10:00,
2013-01-09 16:15:00,42.9,41.0,30.13,SSW,202,4.4,9.1,92,0.00,,,0.00,Rainwise IP-100,2013-01-09 21:15:00,
2013-01-09 16:20:00,43.0,41.0,30.11,SW,225,4.2,7.9,92,0.00,,,0.00,Rainwise IP-100,2013-01-09 21:20:00,
2013-01-09 16:25:00,43.2,41.0,30.11,SSW,202,5.1,7.7,92,0.00,,,0.00,Rainwise IP-100,2013-01-09 21:25:00,
2013-01-09 16:30:00,43.3,41.0,30.11,SSW,202,8.4,8.4,92,0.00,,,0.00,Rainwise IP-100,2013-01-09 21:30:00,
2013-01-09 16:35:00,43.3,41.0,30.10,SSW,202,4.2,9.8,92,0.00,,,0.00,Rainwise IP-100,2013-01-09 21:35:00,
2013-01-09 16:40:00,43.4,41.0,30.10,SSW,202,6.5,9.1,92,0.00,,,0.00,Rainwise IP-100,2013-01-09 21:40:00,
2013-01-09 16:45:00,43.6,41.0,30.09,SSW,202,7.0,7.9,91,0.00,,,0.00,Rainwise IP-100,2013-01-09 21:45:00,
2013-01-09 16:50:00,43.8,41.0,30.08,South,180,4.2,11.9,91,0.00,,,0.00,Rainwise IP-100,2013-01-09 21:50:00,
2013-01-09 16:55:00,44.0,41.0,30.06,South,180,4.9,11.9,90,0.00,,,0.00,Rainwise IP-100,2013-01-09 21:55:00,
2013-01-09 17:00:00,44.3,41.0,30.05,SSW,202,12.8,12.8,90,0.00,,,0.00,Rainwise IP-100,2013-01-09 22:00:00,
2013-01-09 17:05:00,44.5,42.0,30.05,South,180,7.0,15.4,90,0.00,,,0.00,Rainwise IP-100,2013-01-09 22:05:00,
2013-01-09 17:10:00,44.6,42.0,30.02,South,180,4.4,14.9,90,0.00,,,0.00,Rainwise IP-100,2013-01-09 22:10:00,
2013-01-09 17:15:00,44.6,42.0,30.02,South,180,9.1,13.1,90,0.00,,,0.00,Rainwise IP-100,2013-01-09 22:15:00,
2013-01-09 17:20:00,44.6,42.0,30.04,SW,225,10.0,16.1,90,0.00,,,0.00,Rainwise IP-100,2013-01-09 22:20:00,
2013-01-09 17:25:00,44.6,42.0,30.05,SSW,202,10.3,16.1,90,0.00,,,0.00,Rainwise IP-100,2013-01-09 22:25:00,
2013-01-09 17:30:00,44.6,42.0,30.08,SW,225,5.4,15.6,90,0.00,,,0.00,Rainwise IP-100,2013-01-09 22:30:00,
2013-01-09 17:35:00,44.6,42.0,30.08,WSW,247,10.3,12.8,90,0.00,,,0.00,Rainwise IP-100,2013-01-09 22:35:00,
2013-01-09 17:40:00,44.5,42.0,30.07,SW,225,4.7,12.4,90,0.00,,,0.00,Rainwise IP-100,2013-01-09 22:40:00,
2013-01-09 17:45:00,44.5,42.0,30.06,SW,225,9.6,12.8,89,0.00,,,0.00,Rainwise IP-100,2013-01-09 22:45:00,
2013-01-09 17:50:00,44.4,41.0,30.05,SW,225,8.6,13.3,89,0.00,,,0.00,Rainwise IP-100,2013-01-09 22:50:00,
2013-01-09 17:55:00,44.4,41.0,30.05,WNW,292,6.8,11.9,89,0.00,,,0.00,Rainwise IP-100,2013-01-09 22:55:00,
2013-01-09 18:00:00,44.3,41.0,30.06,SW,225,5.6,15.4,89,0.00,,,0.00,Rainwise IP-100,2013-01-09 23:00:00,
2013-01-09 18:05:00,44.1,41.0,30.06,WSW,247,2.8,11.9,89,0.00,,,0.00,Rainwise IP-100,2013-01-09 23:05:00,
2013-01-09 18:10:00,44.0,41.0,30.06,SSW,202,5.4,12.1,89,0.00,,,0.00,Rainwise IP-100,2013-01-09 23:10:00,
2013-01-09 18:15:00,43.9,41.0,30.06,WSW,247,8.6,14.9,90,0.00,,,0.00,Rainwise IP-100,2013-01-09 23:15:00,
2013-01-09 18:20:00,44.0,41.0,30.06,WSW,247,6.3,15.6,90,0.00,,,0.00,Rainwise IP-100,2013-01-09 23:20:00,
2013-01-09 18:25:00,44.3,41.0,30.06,WSW,247,8.9,14.7,90,0.00,,,0.00,Rainwise IP-100,2013-01-09 23:25:00,
2013-01-09 18:30:00,44.5,42.0,30.06,SW,225,7.7,16.8,90,0.00,,,0.00,Rainwise IP-100,2013-01-09 23:30:00,
2013-01-09 18:35:00,44.7,42.0,30.06,SW,225,4.2,14.7,90,0.00,,,0.00,Rainwise IP-100,2013-01-09 23:35:00,
2013-01-09 18:40:00,44.9,42.0,30.06,WSW,247,6.1,14.9,90,0.00,,,0.00,Rainwise IP-100,2013-01-09 23:40:00,
2013-01-09 18:45:00,45.0,42.0,30.06,SW,225,4.4,15.4,90,0.00,,,0.00,Rainwise IP-100,2013-01-09 23:45:00,
2013-01-09 18:50:00,44.9,42.0,30.06,SW,225,9.3,14.2,90,0.00,,,0.00,Rainwise IP-100,2013-01-09 23:50:00,
2013-01-09 18:55:00,44.8,42.0,30.05,SW,225,11.2,13.5,91,0.00,,,0.00,Rainwise IP-100,2013-01-09 23:55:00,
2013-01-09 19:00:00,44.7,42.0,30.06,SW,225,4.9,13.3,91,0.00,,,0.00,Rainwise IP-100,2013-01-10 00:00:00,
2013-01-09 19:05:00,44.7,42.0,30.06,WSW,247,9.1,15.9,91,0.00,,,0.00,Rainwise IP-100,2013-01-10 00:05:00,
2013-01-09 19:10:00,44.7,42.0,30.05,WSW,247,9.6,19.6,91,0.00,,,0.00,Rainwise IP-100,2013-01-10 00:10:00,
2013-01-09 19:15:00,44.6,42.0,30.06,SW,225,11.7,17.7,91,0.00,,,0.00,Rainwise IP-100,2013-01-10 00:15:00,
2013-01-09 19:20:00,44.6,42.0,30.06,SW,225,11.7,17.3,91,0.00,,,0.00,Rainwise IP-100,2013-01-10 00:20:00,
2013-01-09 19:25:00,44.6,42.0,30.06,SW,225,11.2,16.1,91,0.00,,,0.00,Rainwise IP-100,2013-01-10 00:25:00,
2013-01-09 19:30:00,44.5,42.0,30.05,SW,225,6.5,15.2,91,0.00,,,0.00,Rainwise IP-100,2013-01-10 00:30:00,
2013-01-09 19:35:00,44.4,41.0,30.05,SSW,202,12.1,17.0,91,0.00,,,0.00,Rainwise IP-100,2013-01-10 00:35:00,
2013-01-09 19:40:00,44.2,41.0,30.05,WSW,247,7.7,14.5,91,0.00,,,0.00,Rainwise IP-100,2013-01-10 00:40:00,
2013-01-09 19:45:00,43.9,41.0,30.05,West,270,3.0,17.5,91,0.00,,,0.00,Rainwise IP-100,2013-01-10 00:45:00,
2013-01-09 19:50:00,43.8,41.0,30.06,SW,225,10.3,16.1,90,0.00,,,0.00,Rainwise IP-100,2013-01-10 00:50:00,
2013-01-09 19:55:00,43.8,41.0,30.06,SW,225,13.3,20.3,89,0.00,,,0.00,Rainwise IP-100,2013-01-10 00:55:00,
2013-01-09 20:00:00,44.1,41.0,30.06,WSW,247,9.3,17.7,89,0.00,,,0.00,Rainwise IP-100,2013-01-10 01:00:00,
2013-01-09 20:05:00,44.4,41.0,30.06,WSW,247,6.8,20.3,88,0.00,,,0.00,Rainwise IP-100,2013-01-10 01:05:00,
2013-01-09 20:10:00,44.6,41.0,30.06,WSW,247,5.4,15.6,87,0.00,,,0.00,Rainwise IP-100,2013-01-10 01:10:00,
2013-01-09 20:15:00,44.5,41.0,30.06,West,270,8.4,19.6,87,0.00,,,0.00,Rainwise IP-100,2013-01-10 01:15:00,
2013-01-09 20:20:00,44.5,41.0,30.06,WSW,247,4.7,14.2,86,0.00,,,0.00,Rainwise IP-100,2013-01-10 01:20:00,
2013-01-09 20:25:00,44.6,41.0,30.06,SW,225,5.8,13.1,86,0.00,,,0.00,Rainwise IP-100,2013-01-10 01:25:00,
2013-01-09 20:30:00,44.6,41.0,30.06,WSW,247,9.6,22.2,85,0.00,,,0.00,Rainwise IP-100,2013-01-10 01:30:00,
2013-01-09 20:35:00,45.0,41.0,30.06,WNW,292,6.3,18.2,85,0.00,,,0.00,Rainwise IP-100,2013-01-10 01:35:00,
2013-01-09 20:40:00,45.5,41.0,30.06,WSW,247,8.9,19.6,83,0.00,,,0.00,Rainwise IP-100,2013-01-10 01:40:00,
2013-01-09 20:45:00,45.7,40.0,30.06,West,270,4.2,18.0,82,0.00,,,0.00,Rainwise IP-100,2013-01-10 01:45:00,
2013-01-09 20:50:00,45.6,40.0,30.06,West,270,11.4,14.7,82,0.00,,,0.00,Rainwise IP-100,2013-01-10 01:50:00,
2013-01-09 20:55:00,45.5,40.0,30.06,WSW,247,10.7,14.5,82,0.00,,,0.00,Rainwise IP-100,2013-01-10 01:55:00,
2013-01-09 21:00:00,45.5,40.0,30.05,WSW,247,10.7,18.4,81,0.00,,,0.00,Rainwise IP-100,2013-01-10 02:00:00,
2013-01-09 21:05:00,45.5,40.0,30.06,SW,225,14.5,18.4,81,0.00,,,0.00,Rainwise IP-100,2013-01-10 02:05:00,
2013-01-09 21:10:00,45.3,39.0,30.05,SW,225,9.3,15.6,81,0.00,,,0.00,Rainwise IP-100,2013-01-10 02:10:00,
2013-01-09 21:15:00,45.2,39.0,30.06,WNW,292,8.9,17.3,81,0.00,,,0.00,Rainwise IP-100,2013-01-10 02:15:00,
2013-01-09 21:20:00,45.2,39.0,30.06,SW,225,5.6,12.8,81,0.00,,,0.00,Rainwise IP-100,2013-01-10 02:20:00,
2013-01-09 21:25:00,45.3,39.0,30.06,West,270,7.0,18.4,80,0.00,,,0.00,Rainwise IP-100,2013-01-10 02:25:00,
2013-01-09 21:30:00,45.3,39.0,30.06,West,270,4.0,16.6,80,0.00,,,0.00,Rainwise IP-100,2013-01-10 02:30:00,
2013-01-09 21:35:00,45.4,39.0,30.05,SW,225,8.9,16.6,79,0.00,,,0.00,Rainwise IP-100,2013-01-10 02:35:00,
2013-01-09 21:40:00,45.3,39.0,30.05,SSW,202,3.3,12.8,79,0.00,,,0.00,Rainwise IP-100,2013-01-10 02:40:00,
2013-01-09 21:45:00,45.2,39.0,30.05,WSW,247,6.3,16.8,79,0.00,,,0.00,Rainwise IP-100,2013-01-10 02:45:00,
2013-01-09 21:50:00,45.1,38.0,30.05,West,270,15.4,15.9,78,0.00,,,0.00,Rainwise IP-100,2013-01-10 02:50:00,
2013-01-09 21:55:00,45.1,38.0,30.06,WSW,247,6.5,15.9,78,0.00,,,0.00,Rainwise IP-100,2013-01-10 02:55:00,
2013-01-09 22:00:00,45.1,38.0,30.05,WSW,247,7.7,12.6,78,0.00,,,0.00,Rainwise IP-100,2013-01-10 03:00:00,
2013-01-09 22:05:00,45.1,38.0,30.06,NNW,337,5.8,19.1,78,0.00,,,0.00,Rainwise IP-100,2013-01-10 03:05:00,
2013-01-09 22:10:00,45.0,38.0,30.06,NW,315,4.7,15.4,77,0.00,,,0.00,Rainwise IP-100,2013-01-10 03:10:00,
2013-01-09 22:15:00,44.9,38.0,30.06,WNW,292,2.1,12.6,77,0.00,,,0.00,Rainwise IP-100,2013-01-10 03:15:00,
2013-01-09 22:20:00,44.9,38.0,30.06,WSW,247,6.3,12.4,77,0.00,,,0.00,Rainwise IP-100,2013-01-10 03:20:00,
2013-01-09 22:25:00,44.8,38.0,30.07,WSW,247,4.9,13.3,76,0.00,,,0.00,Rainwise IP-100,2013-01-10 03:25:00,
2013-01-09 22:30:00,44.8,38.0,30.06,West,270,4.2,15.4,76,0.00,,,0.00,Rainwise IP-100,2013-01-10 03:30:00,
2013-01-09 22:35:00,44.8,38.0,30.06,WSW,247,11.2,15.2,75,0.00,,,0.00,Rainwise IP-100,2013-01-10 03:35:00,
2013-01-09 22:40:00,44.8,38.0,30.06,West,270,7.2,14.5,75,0.00,,,0.00,Rainwise IP-100,2013-01-10 03:40:00,
2013-01-09 22:45:00,44.9,37.0,30.06,NW,315,3.7,16.6,74,0.00,,,0.00,Rainwise IP-100,2013-01-10 03:45:00,
2013-01-09 22:50:00,45.0,37.0,30.06,SW,225,6.5,16.1,73,0.00,,,0.00,Rainwise IP-100,2013-01-10 03:50:00,
2013-01-09 22:55:00,45.0,37.0,30.06,NW,315,7.7,16.3,73,0.00,,,0.00,Rainwise IP-100,2013-01-10 03:55:00,
2013-01-09 23:00:00,45.0,37.0,30.06,WNW,292,6.3,14.5,73,0.00,,,0.00,Rainwise IP-100,2013-01-10 04:00:00,
2013-01-09 23:05:00,45.0,37.0,30.07,West,270,8.6,15.6,72,0.00,,,0.00,Rainwise IP-100,2013-01-10 04:05:00,
2013-01-09 23:10:00,44.9,37.0,30.07,WNW,292,6.8,14.7,72,0.00,,,0.00,Rainwise IP-100,2013-01-10 04:10:00,
2013-01-09 23:15:00,44.9,36.0,30.07,WSW,247,10.5,12.6,71,0.00,,,0.00,Rainwise IP-100,2013-01-10 04:15:00,
2013-01-09 23:20:00,44.9,36.0,30.08,West,270,6.5,15.4,71,0.00,,,0.00,Rainwise IP-100,2013-01-10 04:20:00,
2013-01-09 23:25:00,44.9,36.0,30.07,West,270,5.6,18.9,71,0.00,,,0.00,Rainwise IP-100,2013-01-10 04:25:00,
2013-01-09 23:30:00,45.0,36.0,30.08,SSW,202,7.2,14.0,70,0.00,,,0.00,Rainwise IP-100,2013-01-10 04:30:00,
2013-01-09 23:35:00,44.9,36.0,30.08,SW,225,5.4,15.4,70,0.00,,,0.00,Rainwise IP-100,2013-01-10 04:35:00,
2013-01-09 23:40:00,44.8,36.0,30.08,SW,225,7.5,14.7,70,0.00,,,0.00,Rainwise IP-100,2013-01-10 04:40:00,
2013-01-09 23:45:00,44.7,36.0,30.09,West,270,3.3,13.5,70,0.00,,,0.00,Rainwise IP-100,2013-01-10 04:45:00,
2013-01-09 23:50:00,44.8,36.0,30.09,WSW,247,8.4,21.0,69,0.00,,,0.00,Rainwise IP-100,2013-01-10 04:50:00,
2013-01-09 23:55:00,45.1,35.0,30.09,West,270,8.4,15.4,68,0.00,,,0.00,Rainwise IP-100,2013-01-10 04:55:00,